Regional Weather Roundup
Issued by NWS Cleveland, OH

Home | Current Version | Previous Version | Graphics & Text | Print | Product List | Glossary On
Versions: 1 2 3 4 5 6 7 8 9 10 11 12 13 14 15 16 17 18 19 20 21 22 23 24 25 26 27 28 29 30 31 32 33 34 35 36 37 38 39 40 41 42 43 44 45 46 47 48 49 50
000
ASUS41 KCLE 241912
RWRCLE
OHIO REGIONAL WEATHER ROUNDUP
NATIONAL WEATHER SERVICE WILMINGTON, OH
300 PM EDT MON JUL 24 2017

NOTE: "FAIR" INDICATES FEW OR NO CLOUDS BELOW 12,000 FEET WITH NO
SIGNIFICANT WEATHER AND/OR OBSTRUCTIONS TO VISIBILITY.

OHZ001>008-015>018-024>027-034-035-043-044-242000-
   NORTHWEST OHIO

CITY           SKY/WX    TMP DP  RH WIND       PRES   REMARKS
DEFIANCE       PTSUNNY  N/A N/A N/A N13       30.02R
FINDLAY        PTSUNNY   74  57  55 NW12      29.98R
TOLEDO EXPRESS CLOUDY    70  57  63 N13       29.99R
TOLEDO EXEC    CLOUDY    71  58  63 N9        30.00R
LIMA           CLOUDY    71  61  70 N6        30.00R
$$

OHZ009>014-019>023-028>033-038-089-242000-
   NORTHEAST OHIO

CITY           SKY/WX    TMP DP  RH WIND       PRES   REMARKS
CLE-HOPKINS    CLOUDY    72  60  66 NW15      29.97R
CLE-LAKEFRONT  CLOUDY    70  59  68 NW15      29.94R
CUY CO. ARPT   CLOUDY    70  61  73 NW17G23   29.95R
LORAIN-ELYRIA  CLOUDY    69  54  58 N10       29.97R
ASHTABULA      CLOUDY    68  61  78 NW10G21   29.92R
AKRON-CANTON   PTSUNNY   75  60  59 NW18G24   29.93R
WOOSTER        PTSUNNY   74  62  66 N14       29.96R
MANSFIELD      CLOUDY    74  60  61 NW15      29.97R
YOUNGSTOWN     PTSUNNY   74  60  61 NW15G25   29.92R
$$

OHZ042-051>053-060>062-070>072-077>081-242000-
  SOUTHWEST OHIO

CITY           SKY/WX    TMP DP  RH WIND       PRES   REMARKS
CINC-COVINGTON FAIR      83  66  56 N8        29.96R
CINC-LUNKEN    PTSUNNY   85  68  56 N8        29.94R
HAMILTON       PTSUNNY   83  68  60 NW8       29.96S
DAYTON         FAIR      77  64  64 N13       29.99R
WRIGHT-PAT AFB FAIR      81  66  61 N13G18    29.97R
DAYTON GENERAL FAIR      81  64  56 NW8       29.96R
WILMINGTON     FAIR      82  67  60 NW9       29.95S
$$

OHZ036-037-039>041-045>050-054>059-063>069-073>076-082>088-242000-
  CENTRAL AND SOUTHEAST OHIO

CITY           SKY/WX    TMP DP  RH WIND       PRES   REMARKS
COLUMBUS       FAIR      81  68  64 NW15G24   29.93R
OSU AIRPORT    PTSUNNY   78  66  66 NW14      29.95R
BOLTON FIELD   PTSUNNY   79  66  65 NW12G20   29.96R
RICKENBACK AFB PTSUNNY   80  65  61 N13       29.93S
NEWARK         FAIR      81  65  58 NW15      29.93R
MARION         PTSUNNY   74  58  57 N16       29.98R
LANCASTER      FAIR      76  65  68 W8        29.94R
ZANESVILLE     FAIR      82  65  56 N10       29.91R
NEW PHILLY     FAIR      79  66  64 NW14G21   29.92R
$$




USA.gov is the U.S. government's official web portal to all federal, state and local government web resources and services.